Terug naar catalogus

STARLINK-37784

ActiefCommunicatieSSO
NORAD 69657·PAYLOAD·🇺🇸 United States

Gelanceerd Jun 21, 2026 vanaf Vandenberg Space Force Base

Loading…

Volgende Passages (komende 24 uur)

TLE

VersSource: CelesTrak SupGP

Epoch: Sep 14, 2026, 23:18 UTC

1 69657C 26143J   26257.97131944  .00022543  00000+0  69981-3 0  2577
2 69657  97.2840 301.2958 0001013  99.9161  95.2491 15.33426788    11

Volg STARLINK-37784 in realtime met AllMySat

Download on the App Store